Regional Weather Roundup
Issued by NWS

Home | Current Version | Previous Version | Graphics & Text | Print | Product List | Glossary On
Versions: 1 2 3 4 5 6 7 8 9 10 11 12 13 14 15 16 17 18 19 20 21 22 23 24 25 26 27 28 29 30 31 32 33 34 35 36 37 38 39 40 41 42 43 44 45 46 47 48 49 50
000
ASUS43 KLOT 080608
RWRIL

ILLINOIS REGIONAL WEATHER ROUNDUP
NATIONAL WEATHER SERVICE CHICAGO/ROMEOVILLE IL
1200 AM CST THU DEC 08 2016

NOTE: "FAIR" INDICATES FEW OR NO CLOUDS BELOW 12,000 FEET WITH NO
SIGNIFICANT WEATHER AND/OR OBSTRUCTIONS TO VISIBILITY.

* THESE STATIONS ARE NOT UNDER NWS QUALITY CONTROL. THEY ALSO MAY NOT
  REPORT WEATHER SUCH AS PRECIPITATION OR FOG.

ILZ001-002-007-009-015-016-024-080700-
NORTHWEST ILLINOIS

CITY           SKY/WX    TMP DP  RH WIND       PRES   REMARKS
MOLINE         CLEAR     21  11  65 W15G29    30.25F WCI   8
6HR MIN TEMP:  21; 6HR MAX TEMP:  25; 6HR PCP: TRACE;

STERLING*      MOCLDY    21  14  74 W25       30.20S WCI   4
SAVANNA*       CLOUDY    22  14  69 W21G26    30.21S WCI   7
$$

ILZ003-004-008-010-011-017-018-080700-
NORTH CENTRAL ILLINOIS

CITY           SKY/WX    TMP DP  RH WIND       PRES   REMARKS
ROCKFORD       FLURRIES  24  14  65 W18G26    30.17S WCI  10
6HR MIN TEMP:  22; 6HR MAX TEMP:  24; 6HR PCP: TRACE;

FREEPORT*      CLOUDY    22  14  70 W21G29    30.17S WCI   6
ROCHELLE*      CLOUDY    23  15  72 W22       30.19S WCI   7
DE KALB*       FLURRIES  23  15  72 W21G29    30.15F WCI   8
$$

ILZ005-006-012>014-019>023-080700-
NORTHEAST ILLINOIS

CITY           SKY/WX    TMP DP  RH WIND       PRES   REMARKS
CHICAGO-OHARE  FLURRIES  23  13  65 W16G33    30.14S WCI  10
6HR MIN TEMP:  22; 6HR MAX TEMP:  24; 6HR PCP: TRACE;

CHICAGO-MIDWAY FLURRIES  25  13  60 W18       30.16S WCI  11
6HR MIN TEMP:  24; 6HR MAX TEMP:  26; 6HR PCP: TRACE;

AURORA         CLOUDY    24  16  71 W21G30    30.16F WCI   9
6HR MIN TEMP:  23; 6HR MAX TEMP:  24;

LANSING*       CLOUDY    24  18  78 W14G28    30.17S WCI  12
JOLIET*        CLOUDY    25  16  67 W14G25    30.19S WCI  14
WAUKEGAN       CLOUDY    23  14  68 VRB7      30.10S WCI  15
6HR MIN TEMP:  21; 6HR MAX TEMP:  24;

DUPAGE AIRPORT CLOUDY    23  14  68 W18       30.14F WCI   9
6HR MIN TEMP:  22; 6HR MAX TEMP:  24;

KANKAKEE*      CLOUDY    25  16  69 W22G28    30.20S WCI  10
WHEELING       CLOUDY    24  12  60 W16G23    30.15S WCI  11
6HR MIN TEMP:  22; 6HR MAX TEMP:  24;

MORRIS*        CLOUDY    24  16  71 W22G28    30.19S WCI   9
ROMEOVILLE*    CLOUDY    24  19  81 W21       30.17F WCI   9
NORTHERLY ISL    N/A     25  17  72 W15         N/A  WCI  13
$$

LMZ740>746-080700-
SOUTHERN LAKE MICHIGAN

STATION/POSITION SKY/WX   TEMP    WIND        PRES    VSBY  WAVE
                          AIR SEA DIR/SP/G                  HT/PER
                          (F)     (DEG/KT/KT) (MB)    (MI)  (FT/S)
HARRISON CRIB              26     280/ 22/ 25   N/A
BURNHAM HARBOR             25     250/ 13/ 19   N/A
CALUMET HARBOR                    250/ 11/ 19 1020.6S
MICHIGAN CITY              26     240/ 22/ 29   N/A
$$

ILZ025>027-034>036-040-047-049-050-058-095>099-080700-
WEST-CENTRAL ILLINOIS

CITY           SKY/WX    TMP DP  RH WIND       PRES   REMARKS
QUINCY         CLEAR     21  12  68 W12       30.35S WCI   9
GALESBURG*     CLEAR     20  13  77 W17       30.28S WCI   5
MACOMB*        CLEAR     21  14  72 W17       30.33S WCI   7
JACKSONVILLE*  CLEAR     22  14  71 W14       30.34S WCI   9
PITTSFIELD*    PTCLDY    24  13  64 W9        30.36S WCI  14
$$

ILZ028>032-037-038-041>044-048-051>054-059>061-080700-
CENTRAL ILLINOIS

CITY           SKY/WX    TMP DP  RH WIND       PRES   REMARKS
PONTIAC        CLOUDY    26  18  74 W21       30.23S WCI  11
BLOOMINGTON    PTCLDY    21  14  74 W20G28    30.24S WCI   6
DECATUR        PTCLDY    24  14  65 NW18G25   30.29R WCI  10
PEORIA         CLEAR     22  12  65 W13G20    30.29S WCI  10
6HR MIN TEMP:  22; 6HR MAX TEMP:  28;

LACON*         PTCLDY    22  14  70 W12G17    30.25S WCI  10
LINCOLN*       CLEAR     24  15  70 W9        30.29S WCI  14
SPRINGFIELD    PTCLDY    26  14  60 W13       30.32R WCI  15
6HR MIN TEMP:  26; 6HR MAX TEMP:  32;

TAYLORVILLE    PTCLDY    25  17  69 W6G21     30.31S WCI  18
6HR MIN TEMP:  25; 6HR MAX TEMP:  31;

$$

ILZ033-039-045-046-055>057-062-063-080700-
EAST-CENTRAL ILLINOIS

CITY           SKY/WX    TMP DP  RH WIND       PRES   REMARKS
CHAMPAIGN      PTCLDY    24  15  68 W15       30.25S WCI  11
RANTOUL*       PTCLDY    26  19  74 W15       30.24S WCI  14
MATTOON        MOCLDY    26  17  68 W14       30.26F WCI  14
PARIS*         CLOUDY    26  21  81 W10       30.26F WCI  16
$$

ILZ079-100>102-080700-
SOUTHWEST ILLINOIS

CITY           SKY/WX    TMP DP  RH WIND       PRES   REMARKS
ALTON          CLEAR     27  16  63 NW14G24   30.35S WCI  16
BELLEVILLE     CLEAR     29  17  60 NW17      30.34R WCI  16
CAHOKIA*       CLEAR     30  15  53 NW10G21   30.37R WCI  21
SPARTA*        PTCLDY    30  20  65 NW9       30.35R WCI  21
$$

ILZ064>066-069>071-074>076-080>082-084>086-088>090-092>094-080700-
SOUTH-CENTRAL ILLINOIS

CITY           SKY/WX    TMP DP  RH WIND       PRES   REMARKS
CARBONDALE     CLOUDY    34  22  61 NW9       30.33R WCI  27
6HR MIN TEMP:  34; 6HR MAX TEMP:  36;

CAIRO*         CLOUDY    36  23  60 NW8       30.32S WCI  29
EFFINGHAM*     PTCLDY    29  22  75 W12       30.31S WCI  19
MARION           N/A     36  23  60 NW7       30.32S WCI  30
CENTRALIA*     CLEAR     31  22  70 NW8       30.32R WCI  24
SALEM*         CLEAR     31  19  61 NW12G17   30.32R WCI  22
METROPOLIS*    CLOUDY    36  22  56 CALM      30.32S
$$

ILZ067-068-072-073-078-083-087-091-080700-
SOUTHEAST ILLINOIS

CITY           SKY/WX    TMP DP  RH WIND       PRES   REMARKS
LAWRENCEVILLE  CLOUDY    32  21  64 NW15      30.28S WCI  22
FLORA*         CLOUDY    32  22  68 NW12      30.31S WCI  23
FAIRFIELD*     CLOUDY    33  21  62 NW5       30.30R WCI  28
HARRISBURG*    CLOUDY    35  24  65 NW12      30.31S WCI  26
ROBINSON*      CLOUDY    30  23  74 NW7       30.29S WCI  24
CARMI*         CLOUDY    33  25  71 NW13      30.29S WCI  24
$$

ABBREVIATIONS USED IN REMARKS
   TC - TEMPERATURE IN CELSIUS
  WCI - WIND CHILL INDEX
   HX - HEAT INDEX
  VSB - VISIBILITY
$$





USA.gov is the U.S. government's official web portal to all federal, state and local government web resources and services.